Home   Weather   Nienburg (Weser)   Past weeks

Flag for Germany Past Weather in Nienburg (Weser), Lower Saxony, Germany — Yesterday and Last 2 Weeks

Now
48 °F

Scattered clouds.


Feels Like: 45 °F
Forecast: 35 / 54 °F
Wind: 8 mph from Northwest

Location: Wunstorf Airport

Current Time: Apr 27, 2017 at 1:31:17 pm

Latest Report: Apr 27, 2017 at 12:20 pm


Visibility: N/A

Pressure: 29.98 "Hg

Humidity: 46%

Dew Point: 28 °F

Location of Nienburg (Weser)Location

Past Weather in Nienburg (Weser) — Graph

°F

Nienburg (Weser) Temperature Yesterday

Maximum temperature yesterday: 50 °F (at 3:20 pm)
Minimum temperature yesterday: 34 °F (at 3:20 am)
Average temperature yesterday: 42 °F

High & Low Weather Summary for the Past Weeks

 TemperatureHumidityPressure
High55 °F (Apr 21, 2:20 pm)100% (Apr 25, 4:20 am)30.63 "Hg (Apr 25, 4:20 am)
Low27 °F (Apr 20, 5:20 am)34% (Apr 20, 2:20 pm)29.62 "Hg (Apr 25, 4:20 am)
Average44 °F71%30.06 "Hg
* Reported Apr 12 12:20 pm — Apr 27 12:20 pm, Nienburg (Weser), Weather by CustomWeather, © 2017

Note: Actual official high and low records may vary slightly from our data, if they occured in-between our weather recording intervals... More about our weather records

Advertising

Nienburg (Weser) Weather History for the Previous 24 Hours

Scroll right to see more
 ConditionsComfort  
Time TempWeatherWind HumidityBarometerVisibility
12:20 pm
Thu, Apr 27
48 °FScattered clouds.8 mph46%29.98 "HgN/A
11:20 am48 °FPartly sunny.7 mph50%29.98 "HgN/A
10:20 am45 °FScattered clouds.9 mph61%29.98 "HgN/A
9:20 am43 °FScattered clouds.6 mph76%29.98 "HgN/A
8:20 am39 °FPartly sunny.6 mph81%29.98 "HgN/A
7:20 am36 °FPartly sunny.2 mph87%29.98 "HgN/A
6:20 am32 °FScattered clouds.6 mph87%29.95 "HgN/A
5:20 am34 °FPassing clouds.5 mph87%29.95 "HgN/A
4:20 am34 °FPassing clouds.3 mph87%29.95 "HgN/A
3:20 am34 °FPassing clouds.3 mph87%29.95 "HgN/A
2:20 am34 °FPassing clouds.2 mph93%29.95 "HgN/A
1:20 am34 °FPassing clouds.3 mph87%29.95 "HgN/A
12:20 am36 °FPassing clouds.2 mph81%29.95 "HgN/A
11:20 pm
Wed, Apr 26
39 °FPassing clouds.7 mph81%29.95 "HgN/A
10:20 pm39 °FPassing clouds.2 mph75%29.92 "HgN/A
9:20 pm43 °FPassing clouds.9 mph61%29.92 "HgN/A
8:20 pm46 °FPassing clouds.5 mph50%29.89 "HgN/A
7:20 pm50 °FScattered clouds.7 mph47%29.89 "HgN/A
6:20 pm50 °FScattered showers. Scattered clouds.9 mph47%29.89 "HgN/A
5:20 pm50 °FScattered showers. Scattered clouds.12 mph47%29.89 "HgN/A
4:20 pm48 °FScattered showers. Partly sunny.8 mph58%29.89 "HgN/A
3:20 pm50 °FScattered showers. Broken clouds.9 mph54%29.89 "HgN/A
2:20 pm48 °FScattered showers. Scattered clouds.7 mph54%29.86 "HgN/A
1:20 pm45 °FSprinkles. Partly sunny.14 mph57%29.89 "HgN/A
1:16 pm46 °FHail. Partly sunny.13 mph53%29.86 "HgN/A
Weather by CustomWeather, © 2017

See weather overviewHow to use our weather pages